Findlay, OH

3:51 AM EST on February 20, 2018 (GMT -0500)
Findlay

Weather History for KFDY - January, 2013

Change the Weather History Date:

Saturday, January 26, 2013

  Actual Average Record
Temperature  
Mean Temperature 18 °F -  
Max Temperature 26 °F 31 °F 67 °F (1950)
Min Temperature 10 °F 16 °F -1 °F (1982)
Degree Days  
Heating Degree Days 47    
Moisture  
Dew Point 15 °F    
Average Humidity 78    
Maximum Humidity 88    
Minimum Humidity 58    
Precipitation  
Precipitation 0.00 in - - ()
Sea Level Pressure  
Sea Level Pressure 30.28 in    
Wind  
Wind Speed 8 mph (West)    
Max Wind Speed 14 mph    
Max Gust Speed 20 mph    
Visibility 8 miles    
Events Snow    
Averages and records for this station are not official NWS values.
T = Trace of Precipitation, MM = Missing Value Source: NWS Daily Summary

Daily Weather History Graph

Daily Weather History Graph

Search for Another Location

Airport or City:

Trip Planner

Search our weather history database for the weather conditions in past years. The results will help you decide how hot, cold, wet, or windy it might be!

Date:

Astronomy

Jan. 26, 2013 Rise Set
Actual Time 7:50 AM EST 5:44 PM EST
Civil Twilight 7:20 AM EST 6:14 PM EST
Nautical Twilight 6:47 AM EST 6:47 PM EST
Astronomical Twilight 6:15 AM EST 7:19 PM EST
Moon 5:38 PM EST (1/26) 7:07 AM EST (1/26)
Length of Visible Light 10h 53m
Length of Day
9h 54m
Full, 100% of the Moon is Illuminated
Jan 26
Full
Jan 26
Full
Feb 3
Last Quarter
Feb 10
New
Feb 17
First Quarter

Hourly Weather History & Observations

Time (EST) Temp. Windchill Dew Point Humidity Pressure Visibility Wind Dir Wind Speed Gust Speed Precip Events Conditions
12:53 AM 23.0 °F 13.1 °F 19.9 °F 88% 30.09 in 4.0 mi WSW 9.2 mph - 0.00 in Snow Light Snow
1:53 AM 24.1 °F 15.2 °F 19.9 °F 84% 30.09 in 6.0 mi SW 8.1 mph - 0.00 in   Overcast
2:53 AM 23.0 °F 15.8 °F 19.9 °F 88% 30.11 in 5.0 mi SW 5.8 mph - N/A   Overcast
3:53 AM 23.0 °F 17.0 °F 19.9 °F 88% 30.12 in 5.0 mi WSW 4.6 mph - N/A   Overcast
4:05 AM 23.0 °F 17.0 °F 19.4 °F 86% 30.09 in 4.0 mi WSW 4.6 mph - 0.00 in Snow Light Snow
4:53 AM 23.0 °F 15.8 °F 19.9 °F 88% 30.12 in 5.0 mi West 5.8 mph - 0.00 in   Overcast
5:53 AM 23.0 °F 14.7 °F 19.9 °F 88% 30.14 in 5.0 mi WNW 6.9 mph - 0.00 in   Overcast
6:53 AM 23.0 °F 13.9 °F 19.9 °F 88% 30.18 in 5.0 mi NW 8.1 mph - N/A   Overcast
7:53 AM 23.0 °F 13.1 °F 19.9 °F 88% 30.21 in 5.0 mi NNW 9.2 mph - N/A   Overcast
8:53 AM 23.0 °F 13.9 °F 19.0 °F 85% 30.25 in 6.0 mi NW 8.1 mph - N/A   Overcast
9:53 AM 23.0 °F 14.7 °F 18.0 °F 81% 30.27 in 9.0 mi NW 6.9 mph - N/A   Overcast
10:53 AM 24.1 °F 13.7 °F 18.0 °F 77% 30.30 in 10.0 mi WNW 10.4 mph - N/A   Mostly Cloudy
11:53 AM 25.0 °F 13.1 °F 17.1 °F 72% 30.32 in 10.0 mi WNW 13.8 mph - N/A   Mostly Cloudy
12:53 PM 26.1 °F 15.0 °F 16.0 °F 66% 30.33 in 10.0 mi NW 12.7 mph 19.6 mph N/A   Scattered Clouds
1:13 PM 24.8 °F 12.9 °F 15.8 °F 69% 30.30 in 10.0 mi NW 13.8 mph - N/A   Mostly Cloudy
1:53 PM 24.1 °F 12.0 °F 15.1 °F 69% 30.32 in 10.0 mi NW 13.8 mph - N/A   Overcast
2:11 PM 24.8 °F 13.4 °F 15.8 °F 69% 30.30 in 10.0 mi NW 12.7 mph - N/A   Overcast
2:53 PM 25.0 °F 14.8 °F 12.9 °F 60% 30.33 in 10.0 mi NW 10.4 mph - N/A   Mostly Cloudy
3:53 PM 25.0 °F 15.5 °F 12.0 °F 58% 30.35 in 10.0 mi WNW 9.2 mph - N/A   Overcast
4:53 PM 25.0 °F 18.1 °F 12.0 °F 58% 30.38 in 10.0 mi NNW 5.8 mph - N/A   Overcast
5:53 PM 24.1 °F 19.7 °F 12.0 °F 60% 30.39 in 10.0 mi NW 3.5 mph - N/A   Mostly Cloudy
6:53 PM 18.0 °F - 10.9 °F 74% 30.43 in 5.0 mi Calm Calm - N/A   Haze
7:53 PM 15.1 °F 9.4 °F 9.0 °F 77% 30.43 in 10.0 mi SSW 3.5 mph - N/A   Clear
8:53 PM 10.9 °F 4.7 °F 7.0 °F 84% 30.44 in 10.0 mi South 3.5 mph - N/A   Clear
9:53 PM 12.0 °F 4.1 °F 7.0 °F 80% 30.44 in 10.0 mi SSE 4.6 mph - N/A   Clear
10:53 PM 12.0 °F 4.1 °F 9.0 °F 88% 30.45 in 10.0 mi South 4.6 mph - N/A   Clear
11:53 PM 10.9 °F 2.9 °F 8.1 °F 88% 30.46 in 9.0 mi South 4.6 mph - N/A   Clear